TimeEDT,TemperatureF,Dew PointF,Humidity,Sea Level PressureIn,VisibilityMPH,Wind Direction,Wind SpeedMPH,Gust SpeedMPH,PrecipitationIn,Events,Conditions,WindDirDegrees,DateUTC
12:15 AM,67.1,67.1,100,30.13,2.5,North,-9999.0,-,N/A,,Mist,0,2013-09-09 04:15:00
12:35 AM,67.1,67.1,100,30.14,1.8,North,-9999.0,-,N/A,,Mist,0,2013-09-09 04:35:00
12:55 AM,66.7,66.7,100,30.14,2.5,North,-9999.0,-,N/A,,Mist,0,2013-09-09 04:55:00
1:15 AM,66.2,66.2,100,30.14,4.0,North,-9999.0,-,N/A,,Mostly Cloudy,0,2013-09-09 05:15:00
1:35 AM,66.6,66.6,100,30.14,2.0,North,-9999.0,-,N/A,,Overcast,0,2013-09-09 05:35:00
1:55 AM,66.7,66.7,100,30.14,1.5,North,-9999.0,-,N/A,,Overcast,0,2013-09-09 05:55:00
2:15 AM,66.6,66.6,100,30.15,1.5,North,-9999.0,-,N/A,,Overcast,0,2013-09-09 06:15:00
2:35 AM,66.4,66.4,100,30.15,1.0,North,-9999.0,-,N/A,,Overcast,0,2013-09-09 06:35:00
2:55 AM,66.6,66.6,100,30.15,1.0,North,-9999.0,-,N/A,,Overcast,0,2013-09-09 06:55:00
3:15 AM,67.5,67.5,100,30.14,0.5,North,-9999.0,-,N/A,Fog,Fog,0,2013-09-09 07:15:00
3:35 AM,67.1,67.1,100,30.14,0.5,North,-9999.0,-,N/A,Fog,Fog,0,2013-09-09 07:35:00
3:55 AM,66.6,66.6,100,30.15,0.5,North,-9999.0,-,N/A,Fog,Fog,0,2013-09-09 07:55:00
4:15 AM,66.9,66.9,100,30.15,0.8,North,-9999.0,-,N/A,,Overcast,0,2013-09-09 08:15:00
4:35 AM,67.1,67.1,100,30.15,0.5,North,-9999.0,-,N/A,Fog,Fog,0,2013-09-09 08:35:00
4:55 AM,67.1,67.1,100,30.16,0.2,North,-9999.0,-,N/A,Fog,Fog,0,2013-09-09 08:55:00
5:15 AM,66.4,66.4,100,30.16,0.2,North,-9999.0,-,N/A,Fog,Fog,0,2013-09-09 09:15:00
5:35 AM,66.2,66.2,100,30.17,0.8,North,-9999.0,-,N/A,,Overcast,0,2013-09-09 09:35:00
5:55 AM,66.0,66.0,100,30.17,0.8,North,-9999.0,-,N/A,,Overcast,0,2013-09-09 09:55:00
6:15 AM,65.8,65.8,100,30.17,0.8,North,-9999.0,-,N/A,,Overcast,0,2013-09-09 10:15:00
6:35 AM,65.7,65.7,100,30.17,0.5,North,-9999.0,-,N/A,Fog,Fog,0,2013-09-09 10:35:00
6:55 AM,65.5,65.5,100,30.18,0.5,North,-9999.0,-,N/A,Fog,Fog,0,2013-09-09 10:55:00
7:15 AM,65.5,65.5,100,30.19,0.2,North,-9999.0,-,N/A,Fog,Fog,0,2013-09-09 11:15:00
7:35 AM,65.3,65.3,100,30.20,0.2,North,-9999.0,-,N/A,Fog,Fog,0,2013-09-09 11:35:00
7:55 AM,65.3,65.3,100,30.20,0.5,North,-9999.0,-,N/A,Fog,Fog,0,2013-09-09 11:55:00
8:15 AM,65.8,65.8,100,30.20,0.5,North,-9999.0,-,N/A,Fog,Fog,0,2013-09-09 12:15:00
8:35 AM,66.2,66.2,100,30.20,0.2,North,-9999.0,-,N/A,Fog,Fog,0,2013-09-09 12:35:00
8:55 AM,66.6,66.6,100,30.21,1.8,North,-9999.0,-,N/A,,Overcast,0,2013-09-09 12:55:00
9:15 AM,67.5,67.5,100,30.21,3.0,North,-9999.0,-,N/A,,Overcast,0,2013-09-09 13:15:00
9:35 AM,69.6,69.6,100,30.21,7.0,North,-9999.0,-,N/A,,Scattered Clouds,0,2013-09-09 13:35:00
9:55 AM,72.9,70.5,92,30.20,10.0,North,-9999.0,-,N/A,,Clear,0,2013-09-09 13:55:00
10:15 AM,75.2,70.3,85,30.21,10.0,North,-9999.0,-,N/A,,Clear,0,2013-09-09 14:15:00
10:35 AM,77.2,69.8,78,30.21,10.0,North,-9999.0,-,N/A,,Clear,0,2013-09-09 14:35:00
10:55 AM,78.3,70.0,76,30.22,10.0,North,-9999.0,-,N/A,,Clear,0,2013-09-09 14:55:00
11:15 AM,80.6,70.7,72,30.21,10.0,North,-9999.0,-,N/A,,Clear,0,2013-09-09 15:15:00
11:35 AM,81.0,70.5,70,30.22,10.0,North,-9999.0,-,N/A,,Clear,0,2013-09-09 15:35:00
11:55 AM,81.9,70.5,68,30.21,10.0,North,-9999.0,-,N/A,,Clear,0,2013-09-09 15:55:00
12:15 PM,83.3,70.2,64,30.21,10.0,North,-9999.0,-,N/A,,Scattered Clouds,0,2013-09-09 16:15:00
12:35 PM,84.2,69.3,61,30.21,10.0,North,-9999.0,-,N/A,,Clear,0,2013-09-09 16:35:00
12:55 PM,84.7,69.4,60,30.20,10.0,North,-9999.0,-,N/A,,Scattered Clouds,0,2013-09-09 16:55:00
1:15 PM,86.0,69.1,57,30.20,10.0,North,-9999.0,-,N/A,,Scattered Clouds,0,2013-09-09 17:15:00
1:35 PM,85.3,69.3,59,30.20,10.0,North,-9999.0,-,N/A,,Scattered Clouds,0,2013-09-09 17:35:00
1:55 PM,84.9,69.3,59,30.19,10.0,North,-9999.0,-,N/A,,Mostly Cloudy,0,2013-09-09 17:55:00
2:15 PM,85.5,69.4,59,30.19,10.0,North,-9999.0,-,N/A,,Scattered Clouds,0,2013-09-09 18:15:00
2:35 PM,86.4,70.2,58,30.19,10.0,North,-9999.0,-,N/A,,Scattered Clouds,0,2013-09-09 18:35:00
2:55 PM,88.2,69.6,54,30.18,10.0,North,-9999.0,-,N/A,,Scattered Clouds,0,2013-09-09 18:55:00
3:15 PM,88.3,69.8,54,30.17,10.0,North,-9999.0,-,N/A,,Mostly Cloudy,0,2013-09-09 19:15:00
3:55 PM,87.8,70.3,56,30.16,10.0,North,-9999.0,-,N/A,,Scattered Clouds,0,2013-09-09 19:55:00
4:15 PM,88.2,69.6,54,30.16,10.0,North,-9999.0,-,N/A,,Scattered Clouds,0,2013-09-09 20:15:00
4:35 PM,86.7,69.6,57,30.15,10.0,North,-9999.0,-,N/A,,Scattered Clouds,0,2013-09-09 20:35:00
4:55 PM,87.3,70.2,57,30.16,10.0,North,-9999.0,-,N/A,,Mostly Cloudy,0,2013-09-09 20:55:00
5:15 PM,83.1,72.0,69,30.15,10.0,North,-9999.0,-,N/A,,Mostly Cloudy,0,2013-09-09 21:15:00
5:35 PM,81.0,73.4,78,30.15,10.0,North,-9999.0,-,N/A,,Scattered Clouds,0,2013-09-09 21:35:00
5:55 PM,81.3,74.1,79,30.16,10.0,North,-9999.0,-,N/A,,Clear,0,2013-09-09 21:55:00
6:15 PM,78.8,73.4,83,30.16,10.0,North,-9999.0,-,N/A,,Clear,0,2013-09-09 22:15:00
6:35 PM,77.9,73.2,85,30.16,10.0,North,-9999.0,-,N/A,,Scattered Clouds,0,2013-09-09 22:35:00
6:55 PM,76.5,72.7,88,30.15,10.0,North,-9999.0,-,N/A,,Scattered Clouds,0,2013-09-09 22:55:00
7:15 PM,77.5,73.0,86,30.15,10.0,North,-9999.0,-,N/A,,Mostly Cloudy,0,2013-09-09 23:15:00
7:35 PM,77.0,73.2,88,30.15,10.0,North,-9999.0,-,N/A,,Mostly Cloudy,0,2013-09-09 23:35:00
7:55 PM,75.4,72.7,91,30.16,7.0,North,-9999.0,-,N/A,,Clear,0,2013-09-09 23:55:00
8:15 PM,73.8,72.0,94,30.17,7.0,North,-9999.0,-,N/A,,Clear,0,2013-09-10 00:15:00
8:35 PM,72.5,71.4,96,30.18,7.0,North,-9999.0,-,N/A,,Scattered Clouds,0,2013-09-10 00:35:00
8:55 PM,72.0,71.1,97,30.19,5.0,North,-9999.0,-,N/A,,Clear,0,2013-09-10 00:55:00
9:15 PM,71.6,70.7,97,30.20,5.0,North,-9999.0,-,N/A,,Scattered Clouds,0,2013-09-10 01:15:00
9:35 PM,71.6,70.9,98,30.20,5.0,North,-9999.0,-,N/A,,Scattered Clouds,0,2013-09-10 01:35:00
9:55 PM,70.7,70.3,99,30.21,4.0,North,-9999.0,-,N/A,,Scattered Clouds,0,2013-09-10 01:55:00
10:15 PM,70.3,70.2,99,30.21,4.0,North,-9999.0,-,N/A,,Clear,0,2013-09-10 02:15:00
10:35 PM,70.0,69.8,99,30.21,3.0,North,-9999.0,-,N/A,,Mist,0,2013-09-10 02:35:00
10:55 PM,69.8,69.8,100,30.22,3.0,North,-9999.0,-,N/A,,Mist,0,2013-09-10 02:55:00
11:15 PM,69.8,69.8,100,30.23,3.0,North,-9999.0,-,N/A,,Mist,0,2013-09-10 03:15:00
11:35 PM,69.6,69.6,100,30.23,3.0,North,-9999.0,-,N/A,,Mist,0,2013-09-10 03:35:00
11:55 PM,69.3,69.3,100,30.23,2.5,North,-9999.0,-,N/A,,Mist,0,2013-09-10 03:55:00